OPS 4682 DEB

Satellite information

Favourite Embed

Satellite Type and Status

DEBRISIN ORBIT

Key statistics

Satellite OPS 4682 DEB at a glance.

Uptime

22073

Days in orbit

Revolutions

≈ 13.0

Per day

Orbit

SSO

Sun Synchronous Orbit

Inclination

90.2

Latest

Satellite identification and parameters

Extended collection of information and parameters for OPS 4682 DEB.

Object identification

Identified? True

Debris? True

Object name: OPS 4682 DEB

International designator: 1965-027X

Object number (NORAD): 18268

Object ID (CCSDS): 18268

Country: UNITED STATES OF AMERICA (US)

Current information (Y/N): Y

RCS size: SMALL

Orbital parameters

Period: 110.978 minutes

Inclination: 90.245 deg

SMA: 7649.827 km

Apoapsis: 1298.057 km

Periapsis: 1245.326 km

RAAN: 358.4319 deg

Eccentricy: 0.00344655

Argument of periapsis: 94.247 deg

Mean anomaly: 266.259 deg

Mean motion: 12.975538 rev/day

Mean motion (dot): -0.00000089 rev/day2

B* drag term: -0.00033186824 1/REarth

Two-line elements (TLE)

Creation date: Sept. 7, 2025, 3:09 a.m.

Reference frame: TEME

Reference center: EARTH

Epoch: Sept. 6, 2025, 1:29 p.m. UTC

TLE line 0: 0 OPS 4682 DEB

TLE line 1: 1 18268U 65027X 25249.56209473 -.00000089 00000-0 -33187-3 0 9997

TLE line 2: 2 18268 90.2450 358.4319 0034466 94.2470 266.2590 12.97553800625158

Live tracking on map

Real-time ground track for satellite OPS 4682 DEB.

In-orbit conjunctions

A list of the most updated potential collisions computed for object OPS 4682 DEB.

Target Orbit TCA Probability of collision Miss distance Type
SS 2 LEO 2025-03-06 03:42:11 0.0001474215 152.0 (m) PAYLOAD

Associated space launch

Experimental satellite equipped with a nuclear power system and a cesium ion engine.

OPS 4682 DEB was lifted into orbit during the mission ‘Atlas SLV-3 Agena D | SNAPSHOT-1’, on board a Atlas SLV-3 Agena D space rocket.

The launch took place on April 3, 1965, 9:25 p.m. from Space Launch Complex 4E.

For more information about the launch, click the button.

Launch to space Atlas SLV-3 Agena D | SNAPSHOT-1
Atlas SLV-3 Agena D | SNAPSHOT-1

Agency: N/A

Status: Launch Successful

Launch date: April 3, 1965, 9:25 p.m. UTC

Rocket: Atlas SLV-3 Agena D

Launch pad: Space Launch Complex 4E

Location: Vandenberg SFB, CA, USA

...

Latest news about this satellite

There are no fresh news available about this satellite. Check back as we update our databases every day.


Newsletter sign-up

Weekly statistics, charts and insights to help you stay on top of the space industry.